Theta_e
293 292 293 293 293 293 293 292 292 292 292 292 292 292 292 292 293 294 295 295 295 296 295 294 294 295 294 294 295 294 295 292 294 295 295 296 296 299 299 298 299 299 301 300 300 302 300 299 299 300 301 301 301 301
293 292 292 293 293 293 293 292 292 292 292 292 292 292 292 291 292 292 294 293 294 295 295 294 294 294 294 294 295 295 296 293 296 297 297 298 298 298 298 298 297 297 298 301 301 301 300 299 299 300 301 301 301 302
292 292 292 292 293 293 293 292 292 292 292 291 291 292 291 291 291 291 291 291 292 292 292 292 293 293 293 294 294 295 295 295 295 295 295 295 295 295 296 296 296 297 298 300 300 299 300 300 300 300 301 301 301 301
292 292 292 292 292 292 292 292 292 292 292 292 292 292 292 292 293 292 292 291 291 292 291 290 290 291 292 292 293 294 294 293 294 295 296 296 296 296 296 297 298 298 298 299 300 300 300 299 300 301 301 301 301 301
292 292 292 291 292 291 291 291 291 291 291 292 292 292 293 292 293 293 293 292 291 291 290 290 291 291 291 290 292 293 293 294 294 295 297 296 296 296 297 297 298 297 298 299 300 300 300 300 300 300 301 301 301 301
291 291 291 291 291 291 290 290 290 290 290 290 290 290 291 291 292 292 292 292 293 291 292 292 289 290 291 291 290 292 293 294 294 296 296 296 295 297 297 298 298 298 299 299 299 299 299 299 300 301 301 301 301 301
290 290 290 290 290 290 289 289 289 289 289 289 289 290 290 290 290 292 291 291 293 291 292 291 292 292 291 293 291 291 291 294 293 295 295 296 296 298 299 299 298 298 299 300 300 300 301 301 301 300 300 301 302 301
290 290 290 290 290 289 289 289 289 289 290 290 290 290 290 291 290 290 290 292 292 291 291 292 293 292 293 293 295 296 295 294 296 296 297 297 298 297 299 298 299 299 300 300 301 300 299 298 298 298 298 298 299 300
290 290 290 290 289 289 289 289 289 289 289 289 290 291 291 291 291 289 289 290 291 292 292 290 293 292 292 295 294 296 297 299 297 298 299 301 301 301 301 300 300 299 300 300 300 299 298 297 296 297 298 298 298 297
290 289 289 289 289 289 288 289 289 289 289 290 290 290 288 290 289 290 293 292 291 292 292 292 290 292 294 294 295 296 296 298 299 299 298 300 299 299 299 298 298 300 300 298 297 298 297 296 296 296 297 297 298 297
290 289 289 289 289 288 289 288 289 289 289 289 289 289 290 291 292 293 294 294 293 293 292 292 291 291 291 294 296 296 297 297 300 299 299 300 300 300 299 300 300 298 297 295 295 294 295 295 296 295 295 295 296 296
290 289 289 289 289 289 288 289 289 289 289 289 289 289 289 290 291 295 296 297 294 294 293 293 293 291 292 293 296 295 298 298 299 297 300 300 301 299 300 299 297 296 295 294 294 294 294 294 294 294 294 294 293 293
289 289 289 289 289 288 289 289 289 288 289 290 289 289 289 288 291 294 293 298 299 297 294 294 296 295 294 294 297 299 300 300 297 300 301 301 299 298 298 297 295 295 294 294 294 294 293 293 292 293 292 292 292 292
289 288 288 288 288 289 288 289 289 289 290 289 289 285 288 287 290 292 295 296 295 294 296 296 296 297 297 298 299 301 299 298 299 300 299 299 298 297 297 296 296 295 294 294 294 293 292 292 292 292 291 291 292 292
288 288 288 289 289 288 289 289 289 289 289 289 289 287 289 290 291 292 292 294 294 293 295 296 296 297 299 299 299 299 298 299 299 300 299 298 297 297 297 296 294 294 294 294 294 293 292 292 292 292 291 291 291 292
288 289 289 288 288 288 289 289 290 289 289 289 289 289 290 292 291 289 292 293 292 292 293 295 297 298 299 299 300 298 298 299 299 298 298 295 297 296 295 295 294 294 294 293 293 292 292 292 292 292 291 291 291 291
289 287 287 288 289 289 289 289 288 289 288 288 288 287 288 289 288 289 289 290 291 291 293 296 296 299 298 300 300 300 299 299 296 296 294 294 295 296 294 294 294 294 294 292 292 291 291 291 292 292 292 291 291 290
287 288 289 289 289 289 288 288 288 289 289 288 287 286 287 289 288 288 289 289 290 291 293 293 295 296 297 298 298 298 297 294 293 294 294 294 294 294 294 295 294 294 293 292 291 291 291 291 292 292 291 291 291 290
287 287 288 288 288 286 287 287 287 286 286 287 288 288 288 288 288 288 288 288 288 290 292 292 293 294 294 295 295 294 293 294 294 293 293 292 292 293 294 294 293 293 292 292 292 292 291 290 291 291 291 291 291 290
286 286 286 287 287 287 287 286 286 286 287 287 287 288 288 289 289 288 288 288 290 291 291 291 292 292 292 292 291 291 291 292 293 293 294 294 293 293 294 294 294 292 292 291 291 290 290 290 290 290 290 291 291 291
287 287 287 287 287 286 286 287 286 286 287 287 287 288 288 287 288 288 287 287 287 288 288 288 289 289 289 289 289 290 290 291 292 293 294 294 294 292 293 294 293 292 291 292 292 291 290 290 290 290 290 290 290 289
286 286 286 286 286 286 286 286 287 286 285 285 285 286 285 284 284 285 286 286 286 287 287 287 287 287 287 287 287 287 287 287 288 289 290 291 292 292 293 293 293 293 292 292 291 291 290 290 289 289 289 289 289 289
286 286 285 286 283 283 282 285 286 285 285 285 286 286 285 285 286 286 285 286 286 284 284 284 283 283 284 284 284 285 286 286 288 290 291 292 292 292 292 292 293 293 292 292 291 290 290 289 289 289 289 288 288 288
286 285 283 284 283 277 281 284 286 286 285 285 285 284 286 285 285 286 286 285 283 282 282 281 281 282 282 282 283 284 285 285 285 286 286 289 291 293 291 292 292 292 292 291 291 290 289 289 289 289 288 288 288 288
284 281 281 280 283 280 281 280 281 285 281 283 284 282 284 286 284 285 285 283 281 280 279 279 280 280 281 281 281 282 282 283 284 285 285 285 289 292 291 291 291 291 291 290 290 289 289 288 289 289 289 288 288 288
280 275 282 280 277 281 280 276 275 279 280 280 284 285 286 284 283 283 282 280 279 278 278 278 278 279 279 280 280 280 280 280 281 282 282 283 287 292 292 292 291 290 290 291 289 289 288 288 288 288 289 288 288 288
276 275 279 282 285 284 282 282 284 285 283 283 283 282 283 282 278 279 278 277 277 277 276 276 277 279 278 278 278 277 277 278 279 280 282 283 286 291 292 293 292 291 290 290 289 288 288 288 288 288 288 288 288 288
280 277 277 276 280 281 275 277 275 277 281 284 282 278 279 278 277 275 276 276 276 275 275 276 276 277 277 277 277 277 277 278 279 280 281 282 285 290 291 291 290 291 290 290 289 288 287 287 287 287 288 288 287 288
281 279 278 274 273 275 277 279 278 281 283 282 281 277 277 277 275 274 275 275 275 274 273 275 276 276 276 276 277 277 277 279 280 287 289 289 289 287 289 289 289 289 289 289 289 288 288 287 287 288 288 287 287 287
278 279 277 270 273 277 277 279 280 280 280 279 278 277 276 274 275 274 274 274 272 272 273 274 275 275 275 276 276 276 276 277 277 280 291 291 289 287 287 288 289 289 289 288 288 288 288 287 287 287 287 287 287 287
275 275 279 279 275 275 276 274 277 279 278 277 273 275 275 273 273 275 274 274 274 274 273 273 273 274 274 274 274 274 275 276 276 277 283 287 287 287 287 288 289 289 288 288 287 287 287 287 287 287 287 287 287 287
267 273 273 275 274 273 277 276 280 280 278 278 276 273 272 272 273 271 274 273 272 272 272 272 273 273 273 273 273 274 274 274 274 276 278 281 284 285 287 288 289 288 288 288 288 288 288 288 288 288 288 288 287 287
268 269 269 271 272 276 274 276 281 279 278 278 276 273 271 271 271 272 274 273 272 272 272 273 273 274 274 273 273 274 275 276 277 278 281 281 282 284 285 286 287 287 287 286 286 287 287 287 287 287 286 285 283 283
Wind_Speed
20 21 20 21 21 20 18 16 15 13 12 11 10 11 11 12 12 11 6 12 10 3 9 14 10 10 4 4 7 2 4 1 2 3 3 3 4 3 3 7 6 4 3 4 5 8 12 6 5 11 10 7 12 17
20 19 20 20 20 19 19 16 15 14 13 12 11 10 10 10 11 11 6 11 13 8 5 12 18 21 23 25 10 6 6 4 3 3 3 3 4 4 8 11 11 9 10 7 8 6 6 7 10 12 16 20 20 23
20 19 19 19 19 19 18 16 15 14 14 13 12 12 11 10 11 12 12 12 7 3 11 10 13 29 31 34 31 10 5 8 8 5 3 3 7 3 6 8 13 7 13 13 15 14 24 22 21 19 20 22 22 21
19 19 17 19 18 17 17 16 15 13 14 14 14 13 13 12 13 13 15 15 10 3 4 5 5 8 11 20 30 33 22 4 5 3 5 5 6 6 8 11 11 10 10 17 19 22 24 23 22 21 20 20 22 22
17 16 17 15 17 16 16 14 14 13 11 10 12 12 11 12 13 15 18 21 20 7 3 6 20 27 14 25 21 24 23 14 6 3 5 7 6 7 8 10 14 14 23 13 16 22 18 22 18 21 22 24 23 23
19 18 18 17 17 16 13 10 9 9 12 15 13 11 8 6 5 3 3 12 24 21 3 3 6 5 7 8 18 16 12 7 6 3 5 5 13 5 5 9 24 15 16 20 22 22 21 25 21 22 20 21 21 20
18 16 15 14 13 13 11 11 10 8 9 9 9 8 11 13 10 6 3 0 4 19 1 4 4 3 2 3 2 3 10 4 4 3 6 9 10 5 4 14 33 18 17 18 16 13 15 18 14 20 21 20 20 20
19 17 16 15 14 13 10 10 9 8 7 7 7 8 8 8 10 14 24 9 11 4 3 3 4 4 1 2 2 3 4 4 5 4 3 5 4 6 7 20 13 9 8 11 11 6 12 14 19 18 18 16 18 17
19 17 15 15 13 12 10 10 9 7 6 6 6 5 4 5 5 5 10 20 14 4 2 3 3 3 1 2 2 2 3 4 3 4 4 3 4 6 10 10 10 6 6 14 15 13 16 16 18 18 16 16 16 17
19 16 15 14 13 10 11 10 9 8 6 6 4 3 2 6 7 4 4 5 5 4 4 4 4 4 1 0 1 1 2 2 3 4 3 3 7 15 14 12 8 7 8 9 13 16 16 15 15 17 17 15 13 14
18 17 15 13 13 11 11 11 10 9 6 5 4 3 2 4 6 3 3 5 5 4 4 4 10 8 2 5 3 3 2 3 3 2 3 3 4 4 4 4 3 2 4 8 10 13 13 14 14 15 14 13 12 11
17 17 14 14 13 12 12 11 13 12 7 6 4 2 1 2 3 4 4 5 6 6 6 4 5 6 3 3 4 3 4 3 5 4 2 3 4 4 2 3 1 4 5 8 10 11 12 13 11 12 11 11 10 7
16 14 13 12 13 13 12 13 14 15 7 3 2 2 2 2 5 5 6 4 3 2 4 3 3 3 3 4 4 4 6 4 1 3 3 4 4 4 2 0 3 3 3 6 10 10 10 12 15 9 11 10 8 4
14 13 13 13 13 13 13 14 15 13 5 3 5 4 6 5 6 5 2 1 0 2 3 3 2 4 3 4 3 3 2 1 2 3 5 3 4 3 1 1 1 4 4 6 9 10 10 10 11 12 11 11 4 3
14 13 13 14 14 13 13 14 15 12 5 4 4 5 7 5 2 2 2 2 2 1 1 1 2 3 3 4 3 2 3 4 4 4 2 3 2 2 2 1 3 4 3 4 7 7 8 10 9 8 14 13 7 7
15 12 12 12 14 14 15 15 12 8 3 2 5 4 3 2 2 1 0 2 1 1 1 1 3 3 6 4 6 6 3 4 3 2 2 4 4 3 3 2 2 3 4 3 5 6 6 7 9 9 13 14 12 10
12 5 9 16 14 14 17 10 3 4 4 4 4 3 3 3 3 4 2 2 1 1 2 2 4 4 2 3 5 5 4 0 2 4 3 4 6 6 4 3 1 2 3 3 4 6 7 7 9 7 8 11 13 14
5 12 15 14 22 20 7 4 4 3 6 4 3 3 3 3 2 2 3 2 1 2 2 4 3 3 4 3 2 1 2 1 1 3 5 7 8 5 4 4 4 3 2 2 4 5 6 5 5 4 6 6 9 11
14 16 12 14 12 4 3 3 2 3 4 2 2 3 2 2 3 3 3 4 4 3 2 2 6 4 6 2 3 6 6 4 6 7 6 6 5 5 5 5 6 5 3 2 2 1 3 3 3 4 5 5 3 6
12 12 12 13 12 3 2 2 3 2 3 3 2 3 3 3 2 2 3 3 3 3 5 4 5 6 5 7 4 5 6 6 6 7 8 6 3 5 7 5 5 7 5 4 3 2 2 1 2 3 3 3 2 3
10 9 12 14 4 4 1 2 3 3 2 2 1 2 3 1 2 3 3 2 3 3 5 4 7 8 7 4 7 6 6 5 6 6 8 9 6 5 5 8 9 7 5 3 4 3 2 1 1 1 1 3 4 5
4 14 4 5 2 3 2 4 2 1 2 2 1 2 2 3 5 6 3 4 4 5 2 2 3 5 6 8 9 13 14 15 15 10 14 13 8 5 6 7 5 5 6 6 6 4 4 3 3 2 2 3 5 6
11 6 4 3 2 1 4 4 3 3 3 2 1 2 2 2 3 2 2 3 1 2 3 2 6 10 9 15 17 19 18 15 8 8 8 7 11 13 12 11 12 7 7 9 10 8 7 6 6 4 4 4 6 6
8 5 4 5 4 4 1 2 3 2 3 2 2 3 3 3 1 1 3 1 2 3 5 8 7 8 8 9 9 9 14 14 11 13 16 10 9 8 13 13 14 15 13 9 11 9 9 7 8 6 6 7 7 7
4 3 4 3 2 3 3 2 2 3 4 5 4 3 3 2 2 2 3 1 2 4 5 7 7 7 8 9 9 10 19 15 9 10 16 14 15 13 8 11 12 15 18 14 11 11 10 8 9 8 9 9 9 8
3 4 8 7 3 4 5 3 4 6 2 4 5 2 1 2 2 3 1 2 2 3 6 7 8 10 9 8 11 12 15 18 19 11 22 19 19 11 9 8 7 7 20 19 18 14 12 11 9 10 11 10 11 11
3 5 3 3 2 3 2 1 2 2 4 4 3 2 1 2 4 1 1 1 3 7 14 15 14 8 10 12 21 25 27 24 23 22 25 24 23 24 21 13 13 17 25 21 21 20 16 14 11 10 10 10 11 12
3 3 5 3 2 1 4 2 3 4 3 2 4 3 5 6 3 1 1 6 12 15 16 16 16 17 20 24 25 24 24 23 25 30 26 26 26 23 23 20 20 27 27 22 21 19 20 18 16 13 11 11 11 11
2 1 3 0 2 1 4 5 4 2 0 2 3 3 3 2 1 1 3 11 13 12 9 10 16 21 21 22 20 19 22 19 11 7 14 6 5 5 22 25 30 27 24 22 19 19 19 18 17 17 15 14 13 12
0 1 2 2 4 4 3 3 2 0 2 2 2 2 2 1 3 6 11 10 10 8 12 13 15 16 12 13 12 25 27 21 19 10 5 7 7 18 23 26 29 26 26 25 23 20 18 18 16 15 13 12 11 9
2 1 1 2 3 3 2 1 1 1 1 2 1 2 2 1 1 1 12 15 11 13 14 12 14 17 17 16 12 11 13 26 34 31 16 16 19 22 24 27 28 27 25 25 23 21 18 15 14 13 12 11 11 10
2 1 2 1 3 3 2 1 1 2 1 1 1 1 1 2 1 2 9 16 11 9 13 14 11 14 22 23 24 25 25 27 29 30 23 19 23 23 27 28 26 24 23 21 20 18 17 15 13 12 11 10 9 8
2 1 1 1 2 2 2 1 2 2 1 1 1 1 1 2 3 2 8 14 7 10 16 20 17 14 15 22 24 26 27 26 26 26 23 24 25 24 24 25 24 23 22 21 18 17 16 15 12 11 11 13 12 10
Wind_Direction
234 232 232 231 232 231 234 237 239 238 237 240 241 242 240 241 244 241 240 238 226 253 255 242 220 226 212 214 252 266 320 214 129 191 221 232 223 237 268 254 280 261 224 203 230 239 270 238 228 219 251 281 297 308
227 229 227 229 227 229 229 234 239 240 241 240 241 241 242 240 239 240 241 253 252 246 264 293 269 255 246 242 246 226 226 187 205 208 222 257 268 280 280 274 254 269 234 260 221 233 263 257 267 275 287 284 285 284
223 224 226 225 226 227 227 229 236 236 237 242 244 241 244 242 234 232 246 254 282 299 290 258 250 259 249 242 235 240 221 223 239 234 256 251 244 227 255 256 259 256 250 255 273 250 261 270 279 276 277 278 280 278
220 221 222 219 220 221 225 229 232 237 241 243 241 240 240 239 235 230 230 235 218 273 274 283 284 260 260 245 228 222 237 240 244 202 231 236 243 227 253 257 267 256 283 264 271 275 276 273 269 273 277 278 277 275
209 209 211 211 212 213 218 221 222 229 234 236 239 240 240 249 242 242 241 235 218 199 261 288 297 284 258 235 228 213 221 225 224 227 228 238 245 244 248 266 260 244 252 257 264 271 278 279 289 288 288 283 282 285
202 204 205 206 208 213 215 220 216 233 244 245 240 247 248 246 245 238 291 239 221 206 266 287 280 272 304 246 212 212 208 211 219 219 236 242 243 241 258 260 261 262 251 243 257 266 273 279 289 292 290 291 291 289
194 193 194 193 197 201 209 214 221 232 227 231 237 235 236 235 231 207 204 338 203 184 253 293 273 266 300 111 101 136 190 196 213 227 232 251 250 229 248 263 268 285 273 269 271 277 277 281 293 302 297 298 298 292
192 193 195 196 199 201 208 210 225 226 225 221 231 242 241 238 238 245 244 236 159 154 201 253 268 318 175 155 184 170 160 192 208 226 227 233 241 207 244 249 267 282 285 280 275 287 288 292 297 302 305 308 306 300
190 190 194 192 192 197 200 209 208 212 217 215 231 259 220 212 206 226 239 211 216 245 257 227 230 263 268 212 185 193 215 226 206 222 217 219 215 235 248 260 269 267 270 294 301 295 308 308 307 302 307 304 304 304
188 190 188 194 191 197 204 198 197 208 208 201 201 138 229 212 203 196 143 154 181 208 235 239 186 251 202 253 258 244 241 254 250 222 155 237 252 260 263 266 285 298 304 330 315 317 321 310 309 308 306 302 298 299
189 191 193 191 194 200 200 200 199 191 197 184 180 210 232 227 190 196 211 181 174 233 214 220 209 225 226 215 219 206 231 233 252 201 216 248 266 254 279 245 284 346 347 321 310 305 302 298 304 306 306 304 307 309
190 193 195 200 200 200 204 203 183 183 183 179 157 193 217 193 217 234 201 183 190 226 177 189 206 192 226 191 198 182 231 203 248 148 233 255 254 264 258 272 3 349 332 323 312 306 314 313 307 303 300 303 311 316
186 197 198 196 199 203 200 191 191 195 177 168 157 174 177 249 230 224 210 196 206 193 167 183 205 191 172 203 206 223 211 224 131 225 239 242 268 294 288 353 334 337 318 304 321 333 329 325 324 309 309 312 323 354
190 195 199 199 203 199 197 197 190 184 163 176 164 219 209 205 227 218 236 62 339 165 193 199 226 198 190 191 228 242 180 198 241 230 235 248 256 317 195 316 343 323 308 317 331 334 335 336 329 325 327 329 335 40
192 199 202 210 198 195 195 190 184 179 161 188 182 226 222 227 250 248 264 278 268 232 200 201 250 214 200 241 214 194 225 223 230 237 236 242 282 313 293 295 320 306 298 325 335 334 333 343 339 346 1 9 47 75
191 203 203 194 191 193 184 175 175 168 199 209 226 244 247 274 268 318 216 258 289 286 238 148 248 238 224 214 192 200 203 221 241 240 318 327 307 260 259 236 244 293 288 309 334 332 329 352 347 350 13 24 32 46
175 172 181 185 189 192 184 165 125 173 203 214 232 242 244 264 241 258 206 245 327 29 267 239 252 255 275 220 186 176 206 129 341 326 326 307 295 298 273 249 270 266 276 317 326 327 329 348 0 11 30 24 42 44
139 155 148 147 138 134 129 151 175 200 231 213 211 242 198 215 207 227 231 232 182 213 219 239 307 245 247 244 228 78 38 347 252 310 311 317 315 290 241 278 288 291 264 305 294 314 331 352 18 11 13 29 59 49
157 162 152 157 154 122 134 171 186 239 233 226 230 241 228 244 222 227 232 241 215 219 264 250 241 231 236 295 351 338 328 332 332 323 309 300 291 271 250 254 263 260 230 252 275 292 324 354 6 5 16 30 33 50
174 176 174 170 164 124 140 173 197 230 236 225 200 230 221 228 242 217 241 250 202 193 202 225 237 268 282 297 296 287 293 296 302 307 304 300 298 259 246 240 261 260 245 205 213 217 284 292 11 11 25 41 77 69
149 164 172 172 159 199 172 187 204 224 248 241 212 202 240 233 238 232 243 201 205 219 250 260 268 262 273 295 299 296 293 293 286 275 286 295 300 257 243 236 235 228 239 222 196 186 223 277 343 25 28 69 88 104
146 158 115 154 130 153 249 220 231 265 213 238 222 212 240 260 265 264 251 222 228 235 270 309 334 330 318 308 303 299 289 289 287 279 270 270 272 257 236 226 205 217 226 226 195 187 187 190 163 150 123 129 131 118
135 125 114 128 93 51 256 157 192 212 217 238 195 225 243 238 233 158 231 216 113 54 11 344 328 317 302 297 296 290 290 286 280 281 281 278 266 256 241 213 206 216 217 218 193 179 175 175 156 154 146 137 131 125
162 151 161 185 166 223 291 210 216 240 197 205 219 237 236 224 162 203 241 92 72 21 4 348 337 325 318 306 294 291 291 293 284 279 277 279 274 261 236 221 207 212 204 183 172 167 168 169 157 159 154 138 131 127
111 221 140 203 211 115 185 242 254 210 220 208 214 265 249 186 209 233 251 73 338 348 339 333 326 316 302 296 293 286 291 286 282 283 280 275 274 266 219 209 204 204 190 155 159 165 165 168 155 161 157 146 138 132
187 242 180 192 213 167 192 198 209 213 182 197 233 244 150 154 188 238 145 341 321 324 330 324 317 312 305 298 296 295 295 294 286 274 271 265 258 235 220 191 182 185 189 180 158 160 166 162 158 160 154 153 149 141
210 246 217 236 205 181 190 260 203 196 193 218 231 167 121 218 241 216 339 47 332 314 311 305 306 303 302 303 298 292 290 283 266 261 268 268 274 229 214 196 195 186 182 173 171 166 160 159 164 158 153 158 162 160
210 157 172 223 194 187 171 176 171 215 243 216 134 173 196 195 216 256 258 326 328 322 313 309 307 305 306 303 302 301 301 295 285 271 259 253 254 222 199 191 190 174 169 167 172 172 165 168 169 167 160 152 149 154
201 132 119 164 339 203 201 192 220 248 219 194 172 188 171 104 164 295 307 327 338 335 323 328 332 334 330 330 331 332 330 320 316 278 186 172 154 141 172 171 159 160 159 158 167 166 166 166 167 169 169 166 165 160
276 110 120 122 157 218 241 186 223 339 67 96 106 94 89 131 146 49 17 2 357 334 330 324 331 340 336 337 338 340 345 342 347 328 230 181 154 143 144 146 149 154 157 156 157 157 157 154 151 147 148 149 155 156
322 8 218 196 225 244 229 253 201 126 92 91 42 111 136 172 228 240 16 7 353 357 356 354 349 351 348 346 346 340 333 346 351 358 28 117 125 127 135 144 150 155 155 153 151 148 147 147 149 151 158 164 172 173
8 159 143 245 273 288 341 46 164 136 122 117 101 101 88 59 26 309 6 356 0 5 343 339 342 338 350 354 354 359 356 350 357 16 31 65 106 127 137 140 147 151 150 149 150 148 151 149 152 158 165 159 150 154
330 93 99 296 319 349 345 355 181 124 80 107 100 106 124 147 183 267 13 16 3 349 335 329 326 335 354 12 12 14 15 20 31 43 55 70 84 97 109 122 131 135 136 133 130 133 133 135 133 136 135 130 123 117